Date String (YYYY-MM-DD hh:mm:ss) UTC,Instrument flags,absolute air pressure of the measurement (hPa),sample flow rate (lpm),inlet stack bypass flow (lpm),air temperature of the measurement (°C),ambient temperature measured by the external sensor (°C),aerosol sample conditioner tube jacket temperature (°C),OPC LED temperature (°C),internal box temperature (°C),relative humidity of the measurement (%),span deviation,mass concentration of particles derived from Lorenz-Mie calculation of OPC scattering (μg/m³),mass concentration of particles derived from Lorenz-Mie calculation of OPC scattering (μg/m³),mass concentration of particles derived from Lorenz-Mie calculation of OPC scattering (μg/m³)
DateTimeUTC,F1_M11,P_M11,Q1_M11,Q2_M11,T1_M11,T2_M11,T3_M11,T4_M11,T5_M11,U1_M11,ZSPAN_M11,X0_M11,X2_M11,X1_M11
2024-02-12 07:00:00,SystemResetWarning,0828.2,4.99,000.00,018.5,017.9,000.0,026.8,020.0,11.1,0000.0,0003.14,0002.46,0002.29
2024-02-12 07:01:00,SystemResetWarning,0828.2,5.00,000.00,018.4,017.8,000.0,026.8,020.0,11.1,0000.0,0004.70,0002.45,0002.27
2024-02-12 07:02:00,SystemResetWarning,0828.2,5.01,000.00,018.4,017.7,000.0,026.8,020.0,11.1,0000.0,0004.82,0002.45,0002.27
2024-02-12 07:03:00,SystemResetWarning,0828.2,5.01,000.00,018.4,017.7,000.0,026.8,020.0,11.1,0000.0,0004.80,0002.44,0002.26
2024-02-12 07:04:00,SystemResetWarning,0828.1,5.00,000.00,018.4,017.6,000.0,026.8,020.0,11.1,0000.0,0004.77,0002.45,0002.26
2024-02-12 07:05:00,SystemResetWarning,0828.1,4.99,000.00,018.3,017.6,000.0,026.8,020.0,11.1,0000.0,0004.59,0002.43,0002.25
2024-02-12 07:06:00,SystemResetWarning,0828.1,4.99,000.00,018.3,017.6,000.0,026.9,020.0,11.2,0000.0,0004.47,0002.39,0002.23
2024-02-12 07:07:00,SystemResetWarning,0828.1,5.00,000.00,018.3,017.5,000.0,026.9,020.0,11.2,0000.0,0004.44,0002.38,0002.23
2024-02-12 07:08:00,SystemResetWarning,0828.1,5.02,000.00,018.3,017.5,000.0,026.9,020.0,11.2,0000.0,0004.47,0002.38,0002.22
2024-02-12 07:09:00,SystemResetWarning,0828.1,5.00,000.00,018.3,017.5,000.0,026.9,020.0,11.2,0000.0,0004.53,0002.39,0002.22
2024-02-12 07:10:00,SystemResetWarning,0828.1,4.99,000.00,018.3,017.5,000.0,026.9,020.0,11.2,0000.0,0004.58,0002.40,0002.22
2024-02-12 07:11:00,SystemResetWarning,0828.1,5.00,000.00,018.4,018.1,000.0,027.0,020.4,11.2,0000.0,0004.58,0002.39,0002.21
2024-02-12 07:12:00,SystemResetWarning,0828.2,5.00,000.00,018.6,018.8,000.0,027.1,020.8,11.1,0000.0,0003.64,0002.38,0002.20
2024-02-12 07:13:00,SystemResetWarning,0828.2,5.00,000.00,018.7,018.8,000.0,027.0,020.7,11.1,0000.0,0002.87,0002.37,0002.20
2024-02-12 07:14:00,SystemResetWarning,0828.1,4.99,000.00,018.6,018.7,000.0,026.9,020.4,11.1,0000.0,0002.86,0002.36,0002.20
2024-02-12 07:15:00,SystemResetWarning,0828.0,5.00,000.00,018.6,018.5,000.0,026.9,020.2,11.1,0000.0,0002.94,0002.38,0002.19
2024-02-12 07:16:00,SystemResetWarning,0828.1,4.99,000.00,018.5,018.3,000.0,026.9,020.1,11.1,0000.0,0002.94,0002.36,0002.17
2024-02-12 07:17:00,SystemResetWarning,0828.1,5.01,000.00,018.5,018.1,000.0,026.8,020.0,11.1,0000.0,0002.95,0002.36,0002.18
2024-02-12 07:18:00,SystemResetWarning,0828.0,5.01,000.00,018.5,018.0,000.0,026.8,020.0,11.2,0000.0,0002.98,0002.38,0002.17
2024-02-12 07:19:00,SystemResetWarning,0828.1,4.99,000.00,018.4,017.9,000.0,026.8,020.0,11.3,0000.0,0002.96,0002.36,0002.15
2024-02-12 07:20:00,SystemResetWarning,0828.1,5.00,000.00,018.4,017.8,000.0,026.8,020.0,11.3,0000.0,0002.89,0002.34,0002.15
2024-02-12 07:21:00,SystemResetWarning,0828.1,5.00,000.00,018.4,017.7,000.0,026.9,020.0,11.2,0000.0,0002.85,0002.34,0002.15
2024-02-12 07:22:00,SystemResetWarning,0828.1,5.00,000.00,018.4,017.7,000.0,026.8,020.0,11.2,0000.0,0002.83,0002.33,0002.14
2024-02-12 07:23:00,SystemResetWarning,0828.1,5.00,000.00,018.4,017.6,000.0,026.9,020.0,11.2,0000.0,0002.82,0002.32,0002.14
2024-02-12 07:24:00,SystemResetWarning,0828.1,5.00,000.00,018.3,017.6,000.0,026.9,020.0,11.3,0000.0,0002.84,0002.33,0002.13
2024-02-12 07:25:00,SystemResetWarning,0828.1,5.00,000.00,018.3,017.6,000.0,026.9,020.0,11.3,0000.0,0002.80,0002.31,0002.12
2024-02-12 07:26:00,SystemResetWarning,0828.1,5.00,000.00,018.3,017.5,000.0,026.9,020.0,11.2,0000.0,0002.73,0002.29,0002.12
2024-02-12 07:27:00,SystemResetWarning,0828.1,5.00,000.00,018.3,017.5,000.0,026.9,020.0,11.3,0000.0,0002.78,0002.33,0002.13
2024-02-12 07:28:00,SystemResetWarning,0828.1,5.00,000.00,018.3,017.5,000.0,026.9,020.0,11.6,0000.0,0002.76,0002.32,0002.12
2024-02-12 07:29:00,SystemResetWarning,0828.1,5.00,000.00,018.3,017.5,000.0,026.9,020.0,11.7,0000.0,0002.87,0002.34,0002.11
2024-02-12 07:30:00,SystemResetWarning,0828.1,5.00,000.00,018.3,017.9,000.0,027.0,020.3,11.6,0000.0,0002.88,0002.35,0002.12
2024-02-12 07:31:00,SystemResetWarning,0828.1,4.99,000.00,018.6,018.8,000.0,027.1,020.8,11.4,0000.0,0002.85,0002.34,0002.11
2024-02-12 07:32:00,SystemResetWarning,0828.1,4.99,000.00,018.7,018.9,000.0,027.0,020.8,11.3,0000.0,0002.83,0002.33,0002.11
2024-02-12 07:33:00,SystemResetWarning,0828.0,5.00,000.00,018.7,018.8,000.0,027.0,020.6,11.3,0000.0,0002.87,0002.33,0002.10
2024-02-12 07:34:00,SystemResetWarning,0828.1,5.00,000.00,018.6,018.6,000.0,026.9,020.3,11.4,0000.0,0002.95,0002.35,0002.10
2024-02-12 07:35:00,SystemResetWarning,0828.1,5.00,000.00,018.6,018.4,000.0,026.9,020.2,11.4,0000.0,0002.95,0002.35,0002.09
2024-02-12 07:36:00,SystemResetWarning,0828.1,5.00,000.00,018.6,018.3,000.0,026.9,020.1,11.5,0000.0,0002.93,0002.34,0002.09
2024-02-12 07:37:00,SystemResetWarning,0828.1,5.00,000.00,018.5,018.1,000.0,026.9,020.0,11.6,0000.0,0002.92,0002.35,0002.10
2024-02-12 07:38:00,SystemResetWarning,0828.1,5.00,000.00,018.5,018.0,000.0,026.9,020.0,11.5,0000.0,0002.87,0002.32,0002.10
2024-02-12 07:39:00,SystemResetWarning,0828.1,5.00,000.00,018.4,017.9,000.0,026.9,020.0,11.6,0000.0,0002.86,0002.31,0002.10
2024-02-12 07:40:00,SystemResetWarning,0828.1,5.00,000.00,018.4,017.9,000.0,026.9,020.0,11.6,0000.0,0002.79,0002.28,0002.09
2024-02-12 07:41:00,SystemResetWarning,0828.1,5.00,000.00,018.4,017.8,000.0,026.9,020.0,11.5,0000.0,0002.76,0002.28,0002.09
2024-02-12 07:42:00,SystemResetWarning,0828.1,5.00,000.00,018.4,017.8,000.0,026.9,020.0,11.6,0000.0,0002.77,0002.28,0002.09
2024-02-12 07:43:00,SystemResetWarning,0828.1,5.01,000.00,018.4,017.7,000.0,026.9,020.0,11.5,0000.0,0003.52,0002.28,0002.08
2024-02-12 07:44:00,SystemResetWarning,0828.1,5.00,000.00,018.3,017.7,000.0,026.9,020.0,11.4,0000.0,0003.96,0002.28,0002.07
2024-02-12 07:45:00,SystemResetWarning,0828.1,5.00,000.00,018.3,017.6,000.0,026.9,020.0,11.4,0000.0,0003.91,0002.26,0002.06
2024-02-12 07:46:00,SystemResetWarning,0828.0,5.00,000.00,018.3,017.6,000.0,026.9,020.0,11.4,0000.0,0003.91,0002.24,0002.04
2024-02-12 07:47:00,SystemResetWarning,0828.0,5.00,000.00,018.3,017.6,000.0,026.9,020.0,11.3,0000.0,0003.93,0002.25,0002.04
2024-02-12 07:48:00,SystemResetWarning,0828.0,4.99,000.00,018.3,017.6,000.0,026.9,020.0,11.3,0000.0,0004.04,0002.26,0002.02
2024-02-12 07:49:00,SystemResetWarning,0828.0,5.00,000.00,018.3,017.5,000.0,026.9,020.0,11.4,0000.0,0003.97,0002.22,0001.99
2024-02-12 07:50:00,SystemResetWarning,0828.0,5.00,000.00,018.3,017.5,000.0,026.9,020.0,11.4,0000.0,0003.98,0002.21,0001.99
2024-02-12 07:51:00,SystemResetWarning,0827.9,5.01,000.00,018.3,017.5,000.0,026.9,020.0,11.4,0000.0,0003.93,0002.20,0001.99
2024-02-12 07:52:00,SystemResetWarning,0827.9,5.01,000.00,018.4,018.1,000.0,027.0,020.4,11.4,0000.0,0003.93,0002.18,0001.98
2024-02-12 07:53:00,SystemResetWarning,0827.9,5.00,000.00,018.6,018.9,000.0,027.1,020.8,11.2,0000.0,0004.00,0002.18,0001.96
2024-02-12 07:54:00,SystemResetWarning,0827.9,4.99,000.00,018.7,018.9,000.0,027.0,020.8,11.1,0000.0,0003.32,0002.16,0001.95
2024-02-12 07:55:00,SystemResetWarning,0828.0,4.99,000.00,018.7,018.8,000.0,026.9,020.5,11.1,0000.0,0002.82,0002.15,0001.95
2024-02-12 07:56:00,SystemResetWarning,0828.0,5.01,000.00,018.6,018.6,000.0,026.9,020.3,11.2,0000.0,0002.87,0002.17,0001.94
2024-02-12 07:57:00,SystemResetWarning,0828.1,5.01,000.00,018.6,018.4,000.0,026.9,020.2,11.2,0000.0,0002.88,0002.18,0001.95
2024-02-12 07:58:00,SystemResetWarning,0827.9,5.00,000.00,018.6,018.2,000.0,026.9,020.1,11.2,0000.0,0002.87,0002.17,0001.95
2024-02-12 07:59:00,SystemResetWarning,0827.9,4.99,000.00,018.5,018.1,000.0,026.8,020.1,11.2,0000.0,0002.84,0002.18,0001.95
